User: anonymous   Login
Location: D�derode
(51.8092°N, 10.1065°E)
Time: 06:57:58
(UTC+00:00)
Language:

Cosmos 1605 Rocket - Orbit

View from above orbital plane
View from above orbital plane
View from above satellite
View from above satellite

Ground track
Ground track

The orbit data is extracted from the following two-line orbital elements,

1 15360U 84109B   21057.87696957  .00000016  00000-0  12982-5 0  9993
2 15360  82.9393 125.0952 0040234 234.3543 125.3865 13.76781610827177
Epoch (UTC): 26 February 2021 21:02:50
Eccentricity: 0.0040234
inclination: 82.9393°
perigee height: 946 km
apogee height: 1005 km
right ascension of ascending node: 125.0952°
argument of perigee: 234.3543°
revolutions per day: 13.76781610
mean anomaly at epoch: 125.3865°
orbit number at epoch: 82717

The dashed part of the orbit path shows where the satellite is in the earth's shadow,  

DLR